QTR1124 OTHH-OOMS

Flight info

Callsign QTR1124
Flight time 1h 2m
Altitude 33000
Route BUNDU B415 RURAL N685 LAKLU G216 MCT
Aircraft A359/H-SDE2E3GHIJ3J4J5LM1ORWXY/LB1D1

Departure

Time 2026-05-04 20:37
Airport Hamad International Airport (OTHH)

Arrival

Time 2026-05-04 21:39
Airport Muscat International Airport (OOMS)
Time Latitude Longitude Altitude Speed Heading
2026-05-04 19:56 25.26944 51.61310 36 ft 0 kts 293°
2026-05-04 20:27 25.26942 51.61315 36 ft 3 kts 293°
2026-05-04 20:27 25.26931 51.61342 35 ft 4 kts 293°
2026-05-04 20:27 25.26922 51.61364 34 ft 4 kts 291°
2026-05-04 20:28 25.26916 51.61392 36 ft 4 kts 263°
2026-05-04 20:28 25.26925 51.61415 32 ft 4 kts 208°
2026-05-04 20:28 25.26949 51.61427 34 ft 4 kts 202°
2026-05-04 20:28 25.26960 51.61432 34 ft 0 kts 202°
2026-05-04 20:31 25.26938 51.61422 34 ft 8 kts 202°
2026-05-04 20:32 25.26855 51.61383 36 ft 17 kts 203°
2026-05-04 20:32 25.26735 51.61330 36 ft 20 kts 195°
2026-05-04 20:32 25.26613 51.61367 36 ft 15 kts 125°
2026-05-04 20:32 25.26565 51.61473 36 ft 17 kts 141°
2026-05-04 20:33 25.26518 51.61583 36 ft 18 kts 76°
2026-05-04 20:33 25.26566 51.61715 36 ft 20 kts 67°
2026-05-04 20:33 25.26605 51.61867 36 ft 21 kts 104°
2026-05-04 20:33 25.26545 51.62009 35 ft 19 kts 129°
2026-05-04 20:34 25.26427 51.62086 35 ft 21 kts 158°
2026-05-04 20:34 25.26276 51.62153 35 ft 26 kts 158°
2026-05-04 20:34 25.26160 51.62204 36 ft 27 kts 158°
2026-05-04 20:34 25.25977 51.62285 36 ft 29 kts 159°
2026-05-04 20:35 25.25780 51.62371 35 ft 31 kts 158°
2026-05-04 20:35 25.25617 51.62444 35 ft 14 kts 158°
2026-05-04 20:35 25.25525 51.62498 35 ft 16 kts 129°
2026-05-04 20:35 25.25553 51.62610 33 ft 18 kts 40°
2026-05-04 20:36 25.25674 51.62620 33 ft 20 kts 343°
2026-05-04 20:36 25.25934 51.62507 33 ft 75 kts 338°
2026-05-04 20:36 25.26653 51.62190 31 ft 144 kts 338°
2026-05-04 20:36 25.27750 51.61713 267 ft 182 kts 338°
2026-05-04 20:37 25.28902 51.61227 1243 ft 172 kts 339°
2026-05-04 20:37 25.29999 51.60769 2150 ft 166 kts 340°
2026-05-04 20:37 25.31136 51.60270 2589 ft 187 kts 338°
2026-05-04 20:37 25.32372 51.59706 3187 ft 196 kts 338°
2026-05-04 20:38 25.33686 51.59190 3836 ft 203 kts 349°
2026-05-04 20:38 25.35057 51.59518 4586 ft 211 kts 31°
2026-05-04 20:38 25.35922 51.60857 5293 ft 228 kts 69°
2026-05-04 20:38 25.35919 51.62658 5980 ft 241 kts 95°
2026-05-04 20:39 25.35815 51.64510 6657 ft 242 kts 81°
2026-05-04 20:39 25.36029 51.66329 7374 ft 242 kts 73°
2026-05-04 20:39 25.36436 51.68135 8134 ft 243 kts 68°
2026-05-04 20:39 25.36838 51.69980 8907 ft 252 kts 79°
2026-05-04 20:40 25.36669 51.71972 9554 ft 273 kts 98°
2026-05-04 20:40 25.36202 51.74092 9963 ft 294 kts 100°
2026-05-04 20:40 25.35713 51.76364 10440 ft 312 kts 99°
2026-05-04 20:40 25.35220 51.78775 10869 ft 331 kts 100°
2026-05-04 20:41 25.34694 51.81326 11304 ft 349 kts 101°
2026-05-04 20:41 25.34144 51.83963 11736 ft 365 kts 101°
2026-05-04 20:41 25.33562 51.86750 12255 ft 376 kts 101°
2026-05-04 20:41 25.32991 51.89609 12899 ft 383 kts 101°
2026-05-04 20:42 25.32419 51.92503 13569 ft 389 kts 102°
2026-05-04 20:42 25.31832 51.95455 14180 ft 394 kts 102°
2026-05-04 20:42 25.31247 51.98393 14830 ft 397 kts 102°
2026-05-04 20:42 25.30648 52.01389 15512 ft 400 kts 103°
2026-05-04 20:43 25.30047 52.04392 16171 ft 402 kts 103°
2026-05-04 20:43 25.29418 52.07418 16819 ft 405 kts 106°
2026-05-04 20:43 25.28485 52.10360 17447 ft 407 kts 116°
2026-05-04 20:43 25.27018 52.13045 18127 ft 407 kts 128°
2026-05-04 20:44 25.25291 52.15534 18697 ft 410 kts 130°
2026-05-04 20:44 25.23515 52.18008 19251 ft 414 kts 130°
2026-05-04 20:44 25.21697 52.20509 19806 ft 418 kts 131°
2026-05-04 20:44 25.19882 52.22991 20387 ft 422 kts 131°
2026-05-04 20:45 25.17998 52.25555 20992 ft 426 kts 131°
2026-05-04 20:45 25.16122 52.28102 21585 ft 430 kts 131°
2026-05-04 20:45 25.14241 52.30650 22128 ft 435 kts 131°
2026-05-04 20:45 25.12374 52.33300 22742 ft 439 kts 126°
2026-05-04 20:46 25.10881 52.36255 23337 ft 445 kts 116°
2026-05-04 20:46 25.09630 52.39414 23812 ft 451 kts 114°
2026-05-04 20:46 25.08471 52.42652 24276 ft 456 kts 112°
2026-05-04 20:46 25.07348 52.45959 24755 ft 461 kts 112°
2026-05-04 20:47 25.06232 52.49299 25236 ft 466 kts 112°
2026-05-04 20:47 25.05117 52.52631 25717 ft 471 kts 112°
2026-05-04 20:47 25.03969 52.56030 26191 ft 476 kts 112°
2026-05-04 20:47 25.02798 52.59467 26672 ft 480 kts 113°
2026-05-04 20:48 25.01609 52.62934 27137 ft 485 kts 113°
2026-05-04 20:48 25.00406 52.66427 27617 ft 490 kts 113°
2026-05-04 20:48 24.99192 52.69944 28125 ft 493 kts 113°
2026-05-04 20:48 24.97961 52.73506 28583 ft 498 kts 113°
2026-05-04 20:49 24.96739 52.77038 29014 ft 502 kts 113°
2026-05-04 20:49 24.95471 52.80705 29450 ft 507 kts 113°
2026-05-04 20:49 24.94226 52.84300 29879 ft 512 kts 113°
2026-05-04 20:49 24.92948 52.87989 30234 ft 516 kts 113°
2026-05-04 20:50 24.91668 52.91683 30611 ft 519 kts 113°
2026-05-04 20:50 24.90374 52.95413 30986 ft 522 kts 113°
2026-05-04 20:50 24.89072 52.99162 31339 ft 526 kts 113°
2026-05-04 20:50 24.87753 53.02956 31681 ft 529 kts 113°
2026-05-04 20:51 24.86431 53.06754 32010 ft 532 kts 113°
2026-05-04 20:51 24.85123 53.10513 32396 ft 533 kts 113°
2026-05-04 20:51 24.83791 53.14333 32688 ft 537 kts 113°
2026-05-04 20:51 24.82440 53.18204 32771 ft 538 kts 113°
2026-05-04 20:52 24.79772 53.25846 32771 ft 534 kts 113°
2026-05-04 20:52 24.77114 53.33441 32766 ft 534 kts 113°
2026-05-04 20:53 24.74443 53.41052 32761 ft 534 kts 113°
2026-05-04 20:53 24.71762 53.48681 32766 ft 534 kts 113°
2026-05-04 20:54 24.69081 53.56294 32765 ft 533 kts 113°
2026-05-04 20:54 24.66400 53.63894 32769 ft 532 kts 113°
2026-05-04 20:55 24.63734 53.71439 32766 ft 532 kts 113°
2026-05-04 20:55 24.61045 53.79033 32766 ft 532 kts 113°
2026-05-04 20:56 24.58353 53.86621 32759 ft 532 kts 113°
2026-05-04 20:56 24.55656 53.94211 32754 ft 531 kts 113°
2026-05-04 20:57 24.52966 54.01767 32758 ft 531 kts 113°
2026-05-04 20:57 24.50297 54.09248 32753 ft 531 kts 113°
2026-05-04 20:58 24.47649 54.16812 32763 ft 531 kts 111°
2026-05-04 20:58 24.45054 54.24386 32764 ft 531 kts 111°
2026-05-04 20:59 24.42494 54.31993 32759 ft 531 kts 109°
2026-05-04 20:59 24.39910 54.39599 32778 ft 531 kts 110°
2026-05-04 21:00 24.37240 54.47140 32773 ft 531 kts 110°
2026-05-04 21:00 24.34578 54.54706 32768 ft 531 kts 110°
2026-05-04 21:01 24.31757 54.62140 32751 ft 531 kts 112°
2026-05-04 21:01 24.28719 54.69507 32745 ft 530 kts 114°
2026-05-04 21:02 24.25640 54.76815 32763 ft 528 kts 114°
2026-05-04 21:02 24.22557 54.84141 32766 ft 528 kts 114°
2026-05-04 21:03 24.19509 54.91405 32785 ft 528 kts 114°
2026-05-04 21:03 24.16440 54.98723 32792 ft 528 kts 114°
2026-05-04 21:04 24.13356 55.06065 32784 ft 529 kts 113°
2026-05-04 21:04 24.10283 55.13367 32792 ft 528 kts 114°
2026-05-04 21:05 24.07206 55.20665 32793 ft 528 kts 114°
2026-05-04 21:05 24.04126 55.27959 32802 ft 528 kts 113°
2026-05-04 21:06 24.01034 55.35268 32801 ft 528 kts 114°
2026-05-04 21:06 23.97964 55.42514 32807 ft 528 kts 114°
2026-05-04 21:07 23.94871 55.49804 32809 ft 528 kts 114°
2026-05-04 21:07 23.91773 55.57095 32804 ft 529 kts 114°
2026-05-04 21:08 23.88665 55.64396 32809 ft 529 kts 114°
2026-05-04 21:08 23.85564 55.71670 32817 ft 529 kts 114°
2026-05-04 21:09 23.82451 55.78960 32834 ft 529 kts 114°
2026-05-04 21:09 23.79354 55.86201 32818 ft 529 kts 114°
2026-05-04 21:10 23.76232 55.93488 32829 ft 529 kts 114°
2026-05-04 21:10 23.73111 56.00764 32838 ft 529 kts 114°
2026-05-04 21:11 23.69983 56.08044 32834 ft 529 kts 114°
2026-05-04 21:11 23.66859 56.15301 32837 ft 529 kts 114°
2026-05-04 21:12 23.63726 56.22572 32827 ft 529 kts 114°
2026-05-04 21:12 23.60612 56.29783 32827 ft 528 kts 114°
2026-05-04 21:13 23.57536 56.36894 32837 ft 527 kts 114°
2026-05-04 21:13 23.54407 56.44119 32843 ft 526 kts 114°
2026-05-04 21:14 23.51277 56.51336 32838 ft 526 kts 114°
2026-05-04 21:14 23.48216 56.58385 32842 ft 526 kts 114°
2026-05-04 21:15 23.45081 56.65591 32841 ft 525 kts 114°
2026-05-04 21:15 23.41954 56.72765 32848 ft 523 kts 114°
2026-05-04 21:16 23.38850 56.79881 32852 ft 523 kts 114°
2026-05-04 21:16 23.36229 56.87252 32863 ft 521 kts 101°
2026-05-04 21:17 23.35754 56.91149 32858 ft 519 kts 89°
2026-05-04 21:17 23.35895 56.95078 32847 ft 519 kts 81°
2026-05-04 21:17 23.37110 57.02841 32842 ft 524 kts 77°
2026-05-04 21:18 23.38060 57.10759 32848 ft 526 kts 81°
2026-05-04 21:18 23.38721 57.18643 32862 ft 526 kts 85°
2026-05-04 21:19 23.39352 57.26574 32858 ft 525 kts 84°
2026-05-04 21:19 23.40039 57.34486 32846 ft 525 kts 84°
2026-05-04 21:20 23.40746 57.42449 32523 ft 533 kts 84°
2026-05-04 21:20 23.41104 57.46471 32277 ft 537 kts 84°
2026-05-04 21:20 23.41466 57.50539 31930 ft 536 kts 84°
2026-05-04 21:21 23.41822 57.54544 31011 ft 537 kts 84°
2026-05-04 21:21 23.42182 57.58600 29980 ft 541 kts 83°
2026-05-04 21:21 23.42544 57.62691 28951 ft 541 kts 84°
2026-05-04 21:21 23.42902 57.66760 28121 ft 537 kts 83°
2026-05-04 21:22 23.43258 57.70816 27324 ft 532 kts 83°
2026-05-04 21:22 23.43607 57.74795 26567 ft 527 kts 83°
2026-05-04 21:22 23.43837 57.77431 26054 ft 524 kts 84°
2026-05-04 21:22 23.44285 57.82571 25044 ft 501 kts 84°
2026-05-04 21:23 23.44607 57.86299 24311 ft 481 kts 84°
2026-05-04 21:23 23.44915 57.89856 23626 ft 468 kts 84°
2026-05-04 21:23 23.45119 57.92208 23144 ft 470 kts 84°
2026-05-04 21:23 23.45425 57.95752 22360 ft 468 kts 83°
2026-05-04 21:24 23.45727 57.99267 21660 ft 464 kts 83°
2026-05-04 21:24 23.46021 58.02705 21339 ft 448 kts 83°
2026-05-04 21:24 23.46298 58.05971 21182 ft 415 kts 83°
2026-05-04 21:24 23.46553 58.08984 21041 ft 386 kts 83°
2026-05-04 21:25 23.46791 58.11797 20904 ft 360 kts 83°
2026-05-04 21:25 23.47014 58.14428 20732 ft 342 kts 82°
2026-05-04 21:25 23.47223 58.17009 20587 ft 344 kts 84°
2026-05-04 21:25 23.47191 58.19631 20209 ft 358 kts 93°
2026-05-04 21:26 23.46906 58.22341 19687 ft 358 kts 95°
2026-05-04 21:26 23.46568 58.25022 19184 ft 356 kts 95°
2026-05-04 21:26 23.46217 58.27680 18684 ft 353 kts 95°
2026-05-04 21:26 23.45858 58.30313 18192 ft 349 kts 95°
2026-05-04 21:27 23.45495 58.32905 17657 ft 345 kts 96°
2026-05-04 21:27 23.45136 58.35473 17108 ft 341 kts 96°
2026-05-04 21:27 23.44790 58.38000 16502 ft 338 kts 96°
2026-05-04 21:27 23.44461 58.40526 15837 ft 335 kts 96°
2026-05-04 21:28 23.44145 58.43024 15181 ft 331 kts 96°
2026-05-04 21:28 23.43843 58.45504 14530 ft 328 kts 96°
2026-05-04 21:28 23.43556 58.47960 13895 ft 325 kts 96°
2026-05-04 21:28 23.43286 58.50380 13243 ft 322 kts 96°
2026-05-04 21:29 23.43027 58.52792 12539 ft 319 kts 96°
2026-05-04 21:29 23.42775 58.55179 11853 ft 315 kts 96°
2026-05-04 21:29 23.42529 58.57539 11186 ft 312 kts 96°
2026-05-04 21:29 23.42289 58.59883 10527 ft 308 kts 94°
2026-05-04 21:30 23.42087 58.62158 9893 ft 305 kts 89°
2026-05-04 21:30 23.42451 58.64397 9298 ft 297 kts 64°
2026-05-04 21:30 23.43663 58.66162 8802 ft 291 kts 37°
2026-05-04 21:30 23.45448 58.67113 8303 ft 287 kts
2026-05-04 21:31 23.49396 58.66768 7346 ft 282 kts 339°
2026-05-04 21:31 23.51033 58.65732 6941 ft 264 kts 317°
2026-05-04 21:31 23.52308 58.64381 6552 ft 251 kts 312°
2026-05-04 21:32 23.53506 58.63001 6234 ft 250 kts 311°
2026-05-04 21:32 23.54693 58.61597 5814 ft 252 kts 310°
2026-05-04 21:32 23.55866 58.60185 5361 ft 254 kts 310°
2026-05-04 21:32 23.57033 58.58776 4900 ft 245 kts 310°
2026-05-04 21:33 23.58147 58.57426 4476 ft 235 kts 310°
2026-05-04 21:33 23.59222 58.56119 4030 ft 229 kts 309°
2026-05-04 21:33 23.60273 58.54821 3586 ft 224 kts 308°
2026-05-04 21:33 23.61020 58.53435 3390 ft 201 kts 284°
2026-05-04 21:34 23.61160 58.52014 3231 ft 181 kts 263°
2026-05-04 21:34 23.61042 58.50688 3069 ft 169 kts 261°
2026-05-04 21:34 23.60960 58.49468 2982 ft 151 kts 262°
2026-05-04 21:34 23.60875 58.48382 2957 ft 140 kts 261°
2026-05-04 21:35 23.60795 58.47321 2813 ft 142 kts 261°
2026-05-04 21:35 23.60722 58.46244 2625 ft 142 kts 261°
2026-05-04 21:35 23.60640 58.45181 2447 ft 140 kts 261°
2026-05-04 21:35 23.60554 58.44125 2279 ft 140 kts 261°
2026-05-04 21:36 23.60470 58.43069 2104 ft 140 kts 261°
2026-05-04 21:36 23.60386 58.42015 1922 ft 139 kts 261°
2026-05-04 21:36 23.60307 58.40979 1749 ft 138 kts 263°
2026-05-04 21:36 23.60226 58.39937 1591 ft 138 kts 263°
2026-05-04 21:37 23.60143 58.38894 1429 ft 138 kts 262°
2026-05-04 21:37 23.60060 58.37854 1278 ft 137 kts 263°
2026-05-04 21:37 23.59978 58.36827 1123 ft 135 kts 263°
2026-05-04 21:37 23.59896 58.35803 968 ft 135 kts 264°
2026-05-04 21:38 23.59817 58.34776 786 ft 135 kts 264°
2026-05-04 21:38 23.59743 58.33765 612 ft 138 kts 264°
2026-05-04 21:38 23.59671 58.32733 440 ft 137 kts 263°
2026-05-04 21:38 23.59578 58.31708 293 ft 137 kts 262°
2026-05-04 21:39 23.59493 58.30681 157 ft 136 kts 263°
2026-05-04 21:39 23.59407 58.29656 49 ft 132 kts 263°
2026-05-04 21:39 23.59339 58.28804 45 ft 79 kts 266°
2026-05-04 21:39 23.59313 58.28489 49 ft 24 kts 265°
2026-05-04 21:40 23.59297 58.28305 50 ft 25 kts 265°
2026-05-04 21:40 23.59283 58.28115 49 ft 25 kts 264°
2026-05-04 21:40 23.59267 58.27918 45 ft 27 kts 265°
2026-05-04 21:40 23.59251 58.27712 45 ft 27 kts 265°
2026-05-04 21:41 23.59235 58.27504 45 ft 28 kts 265°
2026-05-04 21:41 23.59216 58.27290 49 ft 28 kts 265°
2026-05-04 21:41 23.59199 58.27076 52 ft 28 kts 265°
2026-05-04 21:41 23.59182 58.26867 50 ft 26 kts 264°
2026-05-04 21:42 23.59199 58.26708 47 ft 17 kts 319°
2026-05-04 21:42 23.59308 58.26684 47 ft 17 kts 354°
2026-05-04 21:42 23.59431 58.26686 47 ft 18 kts 28°
2026-05-04 21:42 23.59473 58.26813 49 ft 19 kts 84°
2026-05-04 21:43 23.59485 58.26970 48 ft 22 kts 85°
2026-05-04 21:43 23.59499 58.27147 51 ft 24 kts 85°
2026-05-04 21:43 23.59514 58.27339 47 ft 27 kts 85°
2026-05-04 21:43 23.59532 58.27548 51 ft 29 kts 84°
2026-05-04 21:44 23.59550 58.27772 46 ft 29 kts 85°
2026-05-04 21:44 23.59663 58.27913 47 ft 26 kts 39°
2026-05-04 21:44 23.59756 58.28066 48 ft 25 kts 84°
2026-05-04 21:44 23.59772 58.28251 49 ft 16 kts 83°
2026-05-04 21:45 23.59787 58.28367 49 ft 13 kts 64°
2026-05-04 21:45 23.59845 58.28420 45 ft 7 kts 43°
2026-05-04 21:45 23.59861 58.28440 47 ft 2 kts 50°
2026-05-04 21:45 23.59869 58.28452 47 ft 1 kts 56°
2026-05-04 21:46 23.59872 58.28464 48 ft 2 kts 75°
2026-05-04 21:46 23.59881 58.28491 50 ft 5 kts 65°
2026-05-04 21:46 23.59908 58.28526 48 ft 8 kts 44°
2026-05-04 21:46 23.59955 58.28570 45 ft 8 kts 40°
2026-05-04 21:47 23.59963 58.28577 47 ft 0 kts 40°
2026-05-04 21:47 23.59974 58.28587 45 ft 0 kts 40°
2026-05-04 21:47 23.59975 58.28588 45 ft 0 kts 40°
2026-05-04 21:47 23.59980 58.28620 45 ft 0 kts 38°